Weather History for KYKN - April, 2013

Change the Weather History Date:

Wednesday, April 3, 2013

  Actual Average Record
Temperature  
Mean Temperature 45 °F -  
Max Temperature 62 °F 52 °F 87 °F (1981)
Min Temperature 28 °F 28 °F 3 °F (1975)
Degree Days  
Heating Degree Days 20    
Moisture  
Dew Point 26 °F    
Average Humidity 51    
Maximum Humidity 86    
Minimum Humidity 25    
Precipitation  
Precipitation 0.00 in - - ()
Sea Level Pressure  
Sea Level Pressure 30.17 in    
Wind  
Wind Speed 13 mph (SSE)    
Max Wind Speed 24 mph    
Max Gust Speed 32 mph    
Visibility 10 miles    
Events      
Averages and records for this station are not official NWS values.
T = Trace of Precipitation, MM = Missing Value Source: NWS Daily Summary

Daily Weather History Graph

Daily Weather History Graph

Search for Another Location

Airport or City:

Trip Planner

Search our weather history database for the weather conditions in past years. The results will help you decide how hot, cold, wet, or windy it might be!

Date:

Astronomy

Apr. 03, 2013 Rise Set
Actual Time 7:07 AM CDT 7:58 PM CDT
Civil Twilight 6:38 AM CDT 8:27 PM CDT
Nautical Twilight 6:04 AM CDT 9:01 PM CDT
Astronomical Twilight 5:29 AM CDT 9:37 PM CDT
Moon 2:59 AM CDT (4/3) 1:02 PM CDT (4/3)
Length of Visible Light 13h 48m
Length of Day
12h 50m
Last Quarter, 44% of the Moon is Illuminated
Apr 3
Last Quarter
Apr 10
New
Apr 18
First Quarter
Apr 25
Full
May 2
Last Quarter

Hourly Weather History & Observations

Time (CDT) Temp. Windchill Dew Point Humidity Pressure Visibility Wind Dir Wind Speed Gust Speed Precip Events Conditions
12:15 AM 32.0 °F 24.8 °F 24.8 °F 75% 30.27 in 10.0 mi ENE 8.1 mph - N/A   Clear
12:35 AM 32.0 °F 24.8 °F 24.8 °F 75% 30.27 in 10.0 mi ENE 8.1 mph - N/A   Clear
12:55 AM 32.0 °F 24.2 °F 24.8 °F 75% 30.27 in 10.0 mi East 9.2 mph - N/A   Clear
1:15 AM 30.2 °F 21.3 °F 24.8 °F 80% 30.27 in 10.0 mi East 10.4 mph - N/A   Clear
1:35 AM 30.2 °F 23.4 °F 24.8 °F 80% 30.27 in 10.0 mi East 6.9 mph - N/A   Clear
1:55 AM 30.2 °F 21.3 °F 23.0 °F 75% 30.27 in 10.0 mi East 10.4 mph - N/A   Clear
2:15 AM 30.2 °F 22.6 °F 24.8 °F 80% 30.27 in 10.0 mi East 8.1 mph - N/A   Clear
2:35 AM 30.2 °F 21.9 °F 24.8 °F 80% 30.27 in 10.0 mi East 9.2 mph - N/A   Clear
2:55 AM 28.4 °F 20.4 °F 23.0 °F 80% 30.27 in 10.0 mi East 8.1 mph - N/A   Clear
3:15 AM 28.4 °F 20.4 °F 23.0 °F 80% 30.27 in 10.0 mi East 8.1 mph - N/A   Clear
3:35 AM 28.4 °F 20.4 °F 23.0 °F 80% 30.26 in 10.0 mi East 8.1 mph - N/A   Clear
3:55 AM 28.4 °F 19.1 °F 24.8 °F 86% 30.25 in 10.0 mi East 10.4 mph - N/A   Clear
4:15 AM 28.4 °F 19.7 °F 24.8 °F 86% 30.25 in 10.0 mi East 9.2 mph - N/A   Clear
4:35 AM 28.4 °F 18.5 °F 24.8 °F 86% 30.25 in 10.0 mi ESE 11.5 mph - N/A   Clear
4:55 AM 28.4 °F 19.1 °F 24.8 °F 86% 30.24 in 10.0 mi East 10.4 mph - N/A   Clear
5:15 AM 28.4 °F 20.4 °F 23.0 °F 80% 30.24 in 10.0 mi East 8.1 mph - N/A   Clear
5:35 AM 28.4 °F 19.7 °F 24.8 °F 86% 30.23 in 10.0 mi ESE 9.2 mph - N/A   Clear
5:55 AM 30.2 °F 21.3 °F 24.8 °F 80% 30.23 in 10.0 mi ESE 10.4 mph - N/A   Clear
6:15 AM 30.2 °F 19.8 °F 23.0 °F 75% 30.23 in 10.0 mi SE 13.8 mph - N/A   Clear
6:35 AM 30.2 °F 21.9 °F 23.0 °F 75% 30.23 in 10.0 mi SE 9.2 mph - N/A   Clear
6:55 AM 30.2 °F 21.3 °F 21.2 °F 69% 30.24 in 10.0 mi SE 10.4 mph - N/A   Clear
7:15 AM 30.2 °F 20.8 °F 21.2 °F 69% 30.24 in 10.0 mi SSE 11.5 mph - N/A   Clear
7:35 AM 30.2 °F 20.8 °F 21.2 °F 69% 30.24 in 10.0 mi SSE 11.5 mph 18.4 mph N/A   Clear
7:55 AM 32.0 °F 22.5 °F 23.0 °F 69% 30.24 in 10.0 mi SSE 12.7 mph - N/A   Mostly Cloudy
8:15 AM 33.8 °F 25.3 °F 23.0 °F 65% 30.24 in 10.0 mi SSE 11.5 mph 17.3 mph N/A   Overcast
8:35 AM 35.6 °F 27.5 °F 24.8 °F 65% 30.23 in 10.0 mi SSE 11.5 mph - N/A   Mostly Cloudy
8:55 AM 37.4 °F 28.5 °F 23.0 °F 56% 30.23 in 10.0 mi SSE 15.0 mph - N/A   Partly Cloudy
9:15 AM 39.2 °F 31.2 °F 24.8 °F 56% 30.22 in 10.0 mi South 13.8 mph - N/A   Clear
9:35 AM 41.0 °F 34.3 °F 24.8 °F 53% 30.21 in 10.0 mi South 11.5 mph - N/A   Clear
9:55 AM 44.6 °F 39.7 °F 26.6 °F 49% 30.21 in 10.0 mi South 9.2 mph 18.4 mph N/A   Clear
10:15 AM 44.6 °F 38.1 °F 26.6 °F 49% 30.20 in 10.0 mi South 13.8 mph - N/A   Clear
10:35 AM 46.4 °F 40.4 °F 28.4 °F 50% 30.20 in 10.0 mi SSW 13.8 mph - N/A   Clear
11:15 AM 51.8 °F - 28.4 °F 41% 30.19 in 10.0 mi South 13.8 mph - N/A   Clear
11:35 AM 51.8 °F - 26.6 °F 38% 30.19 in 10.0 mi SSW 17.3 mph - N/A   Clear
11:55 AM 53.6 °F - 26.6 °F 35% 30.18 in 10.0 mi SSW 17.3 mph 25.3 mph N/A   Clear
12:15 PM 55.4 °F - 28.4 °F 36% 30.17 in 10.0 mi South 19.6 mph 25.3 mph N/A   Clear
12:35 PM 55.4 °F - 26.6 °F 33% 30.17 in 10.0 mi South 19.6 mph 26.5 mph N/A   Clear
12:55 PM 57.2 °F - 28.4 °F 33% 30.16 in 10.0 mi South 20.7 mph 27.6 mph N/A   Clear
1:15 PM 57.2 °F - 26.6 °F 31% 30.15 in 10.0 mi SSW 23.0 mph 29.9 mph N/A   Clear
1:35 PM 59.0 °F - 28.4 °F 31% 30.14 in 10.0 mi South 20.7 mph 26.5 mph N/A   Clear
1:55 PM 60.8 °F - 28.4 °F 29% 30.13 in 10.0 mi SSW 20.7 mph 31.1 mph N/A   Clear
2:15 PM 60.8 °F - 26.6 °F 27% 30.12 in 10.0 mi South 21.9 mph 28.8 mph N/A   Clear
2:35 PM 62.6 °F - 28.4 °F 27% 30.12 in 10.0 mi SSW 20.7 mph 29.9 mph N/A   Clear
2:55 PM 62.6 °F - 28.4 °F 27% 30.12 in 10.0 mi South 19.6 mph 32.2 mph N/A   Clear
3:15 PM 62.6 °F - 26.6 °F 26% 30.11 in 10.0 mi South 24.2 mph 28.8 mph N/A   Clear
3:35 PM 62.6 °F - 28.4 °F 27% 30.11 in 10.0 mi South 19.6 mph 25.3 mph N/A   Clear
3:55 PM 62.6 °F - 26.6 °F 26% 30.10 in 10.0 mi SSW 21.9 mph 28.8 mph N/A   Clear
4:15 PM 62.6 °F - 28.4 °F 27% 30.09 in 10.0 mi South 23.0 mph 29.9 mph N/A   Clear
4:35 PM 62.6 °F - 26.6 °F 26% 30.09 in 10.0 mi SSW 20.7 mph 28.8 mph N/A   Clear
4:55 PM 62.6 °F - 28.4 °F 27% 30.08 in 10.0 mi SSW 23.0 mph 29.9 mph N/A   Clear
5:15 PM 62.6 °F - 26.6 °F 26% 30.07 in 10.0 mi South 21.9 mph 26.5 mph N/A   Clear
5:35 PM 62.6 °F - 26.6 °F 26% 30.07 in 10.0 mi SSW 24.2 mph 29.9 mph N/A   Clear
5:55 PM 60.8 °F - 26.6 °F 27% 30.08 in 10.0 mi South 21.9 mph 28.8 mph N/A   Clear
6:15 PM 60.8 °F - 26.6 °F 27% 30.07 in 10.0 mi South 23.0 mph 26.5 mph N/A   Clear
6:35 PM 60.8 °F - 26.6 °F 27% 30.08 in 10.0 mi South 18.4 mph 25.3 mph N/A   Clear
6:55 PM 60.8 °F - 24.8 °F 25% 30.07 in 10.0 mi South 18.4 mph 24.2 mph N/A   Clear
7:15 PM 59.0 °F - 24.8 °F 27% 30.08 in 10.0 mi South 18.4 mph 23.0 mph N/A   Clear
7:35 PM 57.2 °F - 26.6 °F 31% 30.08 in 10.0 mi South 13.8 mph - N/A   Clear
7:55 PM 55.4 °F - 26.6 °F 33% 30.09 in 10.0 mi South 15.0 mph - N/A   Clear
8:15 PM 55.4 °F - 24.8 °F 31% 30.08 in 10.0 mi South 15.0 mph 23.0 mph N/A   Clear
8:35 PM 53.6 °F - 24.8 °F 33% 30.08 in 10.0 mi South 15.0 mph 23.0 mph N/A   Clear
8:55 PM 51.8 °F - 26.6 °F 38% 30.09 in 10.0 mi South 15.0 mph 21.9 mph N/A   Clear
9:15 PM 51.8 °F - 26.6 °F 38% 30.09 in 10.0 mi South 17.3 mph - N/A   Clear
9:35 PM 50.0 °F - 26.6 °F 40% 30.09 in 10.0 mi South 16.1 mph 24.2 mph N/A   Clear
9:55 PM 48.2 °F - 26.6 °F 43% 30.09 in 10.0 mi South 18.4 mph 21.9 mph N/A   Clear
10:15 PM 48.2 °F - 26.6 °F 43% 30.09 in 10.0 mi South 18.4 mph 27.6 mph N/A   Clear
10:35 PM 48.2 °F - 26.6 °F 43% 30.09 in 10.0 mi South 19.6 mph 26.5 mph N/A   Clear
10:55 PM 48.2 °F - 24.8 °F 40% 30.08 in 10.0 mi South 18.4 mph 28.8 mph N/A   Clear
11:15 PM 48.2 °F - 24.8 °F 40% 30.08 in 10.0 mi SSW 17.3 mph 28.8 mph N/A   Clear
11:35 PM 46.4 °F 39.5 °F 24.8 °F 43% 30.08 in 10.0 mi SSW 17.3 mph 24.2 mph N/A   Clear
11:55 PM 46.4 °F 40.4 °F 24.8 °F 43% 30.09 in 10.0 mi SSW 13.8 mph 24.2 mph N/A   Clear